AFR32Y LFBD-LFPG

Flight info

Callsign AFR32Y
Flight time 0h 40m
Altitude 30000
Route CNA6E CNA DCT POI DCT PEPAX UT182 NIMER/N0400F280 UT182 KEPER KEPER9E
Aircraft A320/M-SDE3FGHIRWY/LB1

Departure

Time 2026-05-07 20:06
Airport Bordeaux–Mérignac Airport (LFBD)

Arrival

Time 2026-05-07 20:47
Airport Charles de Gaulle International Airport (LFPG)
Time Latitude Longitude Altitude Speed Heading
2026-05-07 19:36 44.82915 -0.70201 162 ft 0 kts 54°
2026-05-07 19:38 44.82910 -0.70211 162 ft 0 kts 54°
2026-05-07 19:38 44.82916 -0.70198 162 ft 0 kts 54°
2026-05-07 19:38 44.82910 -0.70210 162 ft 0 kts 54°
2026-05-07 19:39 44.82916 -0.70198 162 ft 0 kts 54°
2026-05-07 19:56 44.82908 -0.70213 160 ft 3 kts 44°
2026-05-07 19:56 44.82892 -0.70230 160 ft 3 kts 19°
2026-05-07 19:57 44.82873 -0.70235 159 ft 3 kts 351°
2026-05-07 19:57 44.82856 -0.70226 159 ft 3 kts 311°
2026-05-07 19:57 44.82850 -0.70217 159 ft 0 kts 294°
2026-05-07 20:00 44.82855 -0.70232 160 ft 4 kts 294°
2026-05-07 20:00 44.82870 -0.70297 159 ft 10 kts 285°
2026-05-07 20:00 44.82892 -0.70414 159 ft 12 kts 283°
2026-05-07 20:00 44.82866 -0.70492 159 ft 10 kts 239°
2026-05-07 20:01 44.82873 -0.70611 159 ft 15 kts 287°
2026-05-07 20:01 44.82880 -0.70644 159 ft 5 kts 287°
2026-05-07 20:01 44.82897 -0.70720 159 ft 11 kts 287°
2026-05-07 20:01 44.82925 -0.70853 159 ft 17 kts 286°
2026-05-07 20:02 44.82952 -0.70996 157 ft 18 kts 285°
2026-05-07 20:02 44.82995 -0.71196 154 ft 24 kts 286°
2026-05-07 20:02 44.83039 -0.71398 158 ft 19 kts 287°
2026-05-07 20:02 44.83083 -0.71603 158 ft 24 kts 287°
2026-05-07 20:03 44.83134 -0.71845 160 ft 28 kts 285°
2026-05-07 20:03 44.83168 -0.72037 160 ft 13 kts 250°
2026-05-07 20:03 44.83093 -0.72116 159 ft 3 kts 193°
2026-05-07 20:04 44.83073 -0.72122 159 ft 6 kts 193°
2026-05-07 20:04 44.83018 -0.72148 160 ft 9 kts 202°
2026-05-07 20:04 44.82998 -0.72147 160 ft 1 kts 147°
2026-05-07 20:04 44.82987 -0.72121 160 ft 5 kts 109°
2026-05-07 20:05 44.82985 -0.72115 161 ft 0 kts 108°
2026-05-07 20:06 44.82969 -0.72039 162 ft 33 kts 107°
2026-05-07 20:06 44.82834 -0.71396 155 ft 104 kts 107°
2026-05-07 20:06 44.82564 -0.70144 300 ft 154 kts 107°
2026-05-07 20:06 44.82249 -0.68620 964 ft 169 kts 105°
2026-05-07 20:07 44.81927 -0.66988 1775 ft 177 kts 102°
2026-05-07 20:07 44.82082 -0.65264 2488 ft 188 kts 65°
2026-05-07 20:07 44.83058 -0.63967 3093 ft 207 kts 28°
2026-05-07 20:07 44.84581 -0.63451 3279 ft 246 kts 10°
2026-05-07 20:08 44.86365 -0.63076 3863 ft 265 kts
2026-05-07 20:08 44.88198 -0.62723 4618 ft 269 kts
2026-05-07 20:08 44.90067 -0.62396 5356 ft 270 kts
2026-05-07 20:08 44.91934 -0.62075 6099 ft 273 kts
2026-05-07 20:09 44.93831 -0.61711 6754 ft 276 kts
2026-05-07 20:09 44.95737 -0.61279 7378 ft 281 kts 10°
2026-05-07 20:09 44.97678 -0.60730 7732 ft 286 kts 12°
2026-05-07 20:10 45.01543 -0.59498 7961 ft 282 kts 13°
2026-05-07 20:10 45.03421 -0.58871 7990 ft 267 kts 13°
2026-05-07 20:10 45.05321 -0.58228 8010 ft 289 kts 13°
2026-05-07 20:10 45.07257 -0.57573 8217 ft 285 kts 13°
2026-05-07 20:11 45.09184 -0.56920 8740 ft 285 kts 13°
2026-05-07 20:11 45.11121 -0.56262 9563 ft 287 kts 13°
2026-05-07 20:11 45.13043 -0.55555 10338 ft 294 kts 14°
2026-05-07 20:11 45.15091 -0.54740 10686 ft 317 kts 15°
2026-05-07 20:12 45.17276 -0.53824 11029 ft 338 kts 16°
2026-05-07 20:12 45.19587 -0.52820 11407 ft 356 kts 16°
2026-05-07 20:12 45.22007 -0.51744 11800 ft 373 kts 17°
2026-05-07 20:12 45.24527 -0.50607 12208 ft 388 kts 17°
2026-05-07 20:13 45.27139 -0.49416 12676 ft 399 kts 17°
2026-05-07 20:13 45.29796 -0.48195 13400 ft 404 kts 17°
2026-05-07 20:13 45.32488 -0.46950 14047 ft 409 kts 17°
2026-05-07 20:13 45.35203 -0.45689 14667 ft 413 kts 17°
2026-05-07 20:14 45.35506 -0.45548 14736 ft 414 kts 17°
2026-05-07 20:14 45.35942 -0.45345 14831 ft 414 kts 17°
2026-05-07 20:14 45.38540 -0.44134 15402 ft 418 kts 17°
2026-05-07 20:14 45.41319 -0.42839 16026 ft 423 kts 17°
2026-05-07 20:15 45.44125 -0.41526 16631 ft 427 kts 17°
2026-05-07 20:15 45.46965 -0.40195 17233 ft 431 kts 17°
2026-05-07 20:15 45.49822 -0.38852 17816 ft 435 kts 17°
2026-05-07 20:15 45.52801 -0.37449 18378 ft 439 kts 17°
2026-05-07 20:16 45.55917 -0.35980 18903 ft 443 kts 17°
2026-05-07 20:16 45.62145 -0.33023 19934 ft 450 kts 18°
2026-05-07 20:16 45.73897 -0.26039 21783 ft 464 kts 23°
2026-05-07 20:16 45.81771 -0.20980 22948 ft 472 kts 23°
2026-05-07 20:17 45.93910 -0.13052 24457 ft 483 kts 24°
2026-05-07 20:17 46.06252 -0.04917 25761 ft 494 kts 23°
2026-05-07 20:17 46.18744 0.03371 27854 ft 484 kts 23°
2026-05-07 20:17 46.34858 0.14133 29957 ft 474 kts 23°
2026-05-07 20:18 46.46943 0.22241 30055 ft 480 kts 23°
2026-05-07 20:18 46.67953 0.32694 30061 ft 475 kts 10°
2026-05-07 20:19 46.93664 0.40694 30057 ft 475 kts 10°
2026-05-07 20:19 47.10176 0.44143 30070 ft 469 kts 352°
2026-05-07 20:20 47.16649 0.42981 30063 ft 468 kts 349°
2026-05-07 20:20 47.23096 0.41538 30063 ft 468 kts 348°
2026-05-07 20:21 47.29472 0.40010 30068 ft 468 kts 348°
2026-05-07 20:21 47.35888 0.38443 30066 ft 468 kts 348°
2026-05-07 20:21 47.39133 0.38011 30069 ft 471 kts
2026-05-07 20:22 47.42363 0.38866 30082 ft 475 kts 18°
2026-05-07 20:22 47.45337 0.40971 30079 ft 477 kts 31°
2026-05-07 20:22 47.48072 0.43604 30071 ft 460 kts 34°
2026-05-07 20:22 47.50666 0.46258 30073 ft 449 kts 34°
2026-05-07 20:23 47.53232 0.48909 30075 ft 450 kts 34°
2026-05-07 20:23 47.58452 0.54148 30076 ft 455 kts 33°
2026-05-07 20:24 47.63779 0.59203 30079 ft 453 kts 31°
2026-05-07 20:24 47.69156 0.64072 30075 ft 453 kts 30°
2026-05-07 20:25 47.74600 0.68833 30082 ft 454 kts 30°
2026-05-07 20:25 47.80064 0.73499 30077 ft 453 kts 29°
2026-05-07 20:26 47.85545 0.78109 30081 ft 453 kts 29°
2026-05-07 20:26 47.91044 0.82689 30083 ft 453 kts 28°
2026-05-07 20:27 47.96548 0.87249 30080 ft 452 kts 28°
2026-05-07 20:27 48.02055 0.91799 30084 ft 452 kts 28°
2026-05-07 20:28 48.07574 0.96354 29974 ft 453 kts 28°
2026-05-07 20:28 48.13061 1.00884 30003 ft 450 kts 28°
2026-05-07 20:29 48.18561 1.05431 30017 ft 452 kts 28°
2026-05-07 20:29 48.24059 1.09983 30013 ft 450 kts 28°
2026-05-07 20:30 48.29543 1.14533 30013 ft 450 kts 28°
2026-05-07 20:30 48.35030 1.19094 30018 ft 450 kts 28°
2026-05-07 20:31 48.40501 1.23656 30019 ft 449 kts 28°
2026-05-07 20:31 48.43254 1.25954 29558 ft 456 kts 28°
2026-05-07 20:31 48.46009 1.28257 28993 ft 449 kts 28°
2026-05-07 20:31 48.48675 1.30492 28447 ft 440 kts 28°
2026-05-07 20:32 48.51315 1.32747 27905 ft 433 kts 32°
2026-05-07 20:32 48.53553 1.35639 27380 ft 414 kts 51°
2026-05-07 20:32 48.55016 1.39219 26862 ft 392 kts 67°
2026-05-07 20:32 48.55974 1.42924 26369 ft 375 kts 72°
2026-05-07 20:33 48.56928 1.46563 25867 ft 370 kts 60°
2026-05-07 20:33 48.58540 1.49517 25387 ft 364 kts 39°
2026-05-07 20:33 48.60378 1.51547 24943 ft 359 kts 33°
2026-05-07 20:33 48.62451 1.53560 24456 ft 349 kts 30°
2026-05-07 20:34 48.64514 1.55413 23982 ft 340 kts 28°
2026-05-07 20:34 48.66558 1.57132 23489 ft 332 kts 27°
2026-05-07 20:34 48.68577 1.58746 22927 ft 325 kts 26°
2026-05-07 20:34 48.70567 1.60279 22493 ft 316 kts 25°
2026-05-07 20:35 48.72407 1.62029 21936 ft 312 kts 41°
2026-05-07 20:35 48.73927 1.64363 21343 ft 310 kts 49°
2026-05-07 20:35 48.75306 1.66928 20312 ft 319 kts 53°
2026-05-07 20:35 48.76631 1.69699 19234 ft 329 kts 55°
2026-05-07 20:36 48.77874 1.72503 18232 ft 335 kts 57°
2026-05-07 20:36 48.79125 1.75514 17092 ft 339 kts 58°
2026-05-07 20:36 48.80362 1.78549 16013 ft 340 kts 58°
2026-05-07 20:36 48.81582 1.81610 14967 ft 339 kts 59°
2026-05-07 20:37 48.82788 1.84680 13952 ft 338 kts 59°
2026-05-07 20:37 48.83988 1.87730 12874 ft 335 kts 58°
2026-05-07 20:37 48.85159 1.90719 11857 ft 332 kts 60°
2026-05-07 20:37 48.86237 1.93728 11011 ft 325 kts 63°
2026-05-07 20:38 48.86556 1.94712 10811 ft 321 kts 65°
2026-05-07 20:38 48.86860 1.95748 10680 ft 313 kts 67°
2026-05-07 20:39 48.87367 1.97423 10365 ft 304 kts 60°
2026-05-07 20:39 48.88060 1.99125 9955 ft 304 kts 54°
2026-05-07 20:39 48.89334 2.01725 9214 ft 309 kts 50°
2026-05-07 20:39 48.90719 2.04237 8496 ft 311 kts 48°
2026-05-07 20:40 48.92165 2.06682 7814 ft 311 kts 46°
2026-05-07 20:40 48.93646 2.09070 7175 ft 310 kts 45°
2026-05-07 20:40 48.95068 2.11529 6546 ft 308 kts 52°
2026-05-07 20:40 48.96200 2.14281 5926 ft 306 kts 66°
2026-05-07 20:41 48.96792 2.17351 5418 ft 300 kts 78°
2026-05-07 20:41 48.97128 2.20441 5076 ft 304 kts 83°
2026-05-07 20:41 48.97413 2.23666 4722 ft 303 kts 82°
2026-05-07 20:41 48.97681 2.26763 4261 ft 284 kts 84°
2026-05-07 20:42 48.97852 2.29632 3873 ft 260 kts 85°
2026-05-07 20:42 48.97992 2.32247 3548 ft 236 kts 85°
2026-05-07 20:42 48.98120 2.34589 3240 ft 210 kts 85°
2026-05-07 20:42 48.98217 2.36373 3008 ft 189 kts 85°
2026-05-07 20:43 48.98302 2.37943 2809 ft 173 kts 86°
2026-05-07 20:43 48.98396 2.39671 2590 ft 153 kts 86°
2026-05-07 20:43 48.98478 2.41182 2391 ft 135 kts 86°
2026-05-07 20:44 48.98550 2.42537 2210 ft 121 kts 86°
2026-05-07 20:44 48.98616 2.43758 2062 ft 120 kts 86°
2026-05-07 20:44 48.98692 2.45217 1886 ft 141 kts 86°
2026-05-07 20:44 48.98773 2.46671 1662 ft 136 kts 85°
2026-05-07 20:45 48.98851 2.48099 1502 ft 134 kts 86°
2026-05-07 20:45 48.98923 2.49540 1320 ft 138 kts 86°
2026-05-07 20:45 48.98995 2.50978 1099 ft 133 kts 85°
2026-05-07 20:45 48.99057 2.52395 955 ft 137 kts 85°
2026-05-07 20:46 48.99131 2.53827 759 ft 134 kts 83°
2026-05-07 20:46 48.99215 2.55180 567 ft 133 kts 84°
2026-05-07 20:46 48.99293 2.56584 411 ft 128 kts 84°
2026-05-07 20:46 48.99360 2.57826 353 ft 107 kts 85°
2026-05-07 20:47 48.99411 2.58788 352 ft 75 kts 85°
2026-05-07 20:47 48.99445 2.59396 352 ft 33 kts 86°
2026-05-07 20:47 48.99462 2.59743 352 ft 33 kts 84°
2026-05-07 20:47 48.99556 2.59963 355 ft 23 kts 20°
2026-05-07 20:48 48.99631 2.59983 354 ft 6 kts 346°
2026-05-07 20:48 48.99673 2.59972 354 ft 6 kts 357°
2026-05-07 20:48 48.99682 2.59972 354 ft 0 kts 357°
2026-05-07 20:48 48.99686 2.59971 354 ft 2 kts 357°
2026-05-07 20:49 48.99713 2.59970 354 ft 5 kts 357°
2026-05-07 20:49 48.99758 2.59965 355 ft 8 kts 354°
2026-05-07 20:49 48.99826 2.59955 357 ft 12 kts 354°
2026-05-07 20:49 48.99895 2.59989 358 ft 11 kts 42°
2026-05-07 20:50 48.99954 2.60065 354 ft 11 kts 22°
2026-05-07 20:50 48.99967 2.60072 356 ft 3 kts 18°
2026-05-07 20:50 48.99982 2.60073 354 ft 0 kts 356°
2026-05-07 20:51 48.99994 2.60071 354 ft 1 kts 348°
2026-05-07 20:51 49.00022 2.60037 354 ft 10 kts 314°
2026-05-07 20:51 49.00066 2.59992 354 ft 9 kts 348°
2026-05-07 20:51 49.00096 2.59875 354 ft 18 kts 264°
2026-05-07 20:52 49.00084 2.59637 354 ft 27 kts 264°
2026-05-07 20:52 49.00065 2.59304 358 ft 37 kts 264°
2026-05-07 20:52 49.00050 2.59033 355 ft 10 kts 265°
2026-05-07 20:52 49.00058 2.58943 359 ft 7 kts 302°
2026-05-07 20:53 49.00100 2.58897 356 ft 8 kts 345°
2026-05-07 20:53 49.00159 2.58888 359 ft 9 kts 355°
2026-05-07 20:53 49.00228 2.58880 354 ft 11 kts 355°
2026-05-07 20:53 49.00310 2.58870 358 ft 13 kts 355°
2026-05-07 20:54 49.00403 2.58859 354 ft 14 kts 355°
2026-05-07 20:54 49.00505 2.58846 358 ft 15 kts 355°
2026-05-07 20:54 49.00618 2.58834 356 ft 17 kts 358°
2026-05-07 20:54 49.00734 2.58827 362 ft 13 kts 347°
2026-05-07 20:55 49.00821 2.58792 356 ft 13 kts 329°
2026-05-07 20:55 49.00849 2.58671 358 ft 13 kts 265°
2026-05-07 20:55 49.00840 2.58521 358 ft 15 kts 265°
2026-05-07 20:55 49.00833 2.58353 355 ft 17 kts 266°
2026-05-07 20:56 49.00827 2.58242 355 ft 9 kts 263°
2026-05-07 20:56 49.00806 2.58153 361 ft 9 kts 226°
2026-05-07 20:56 49.00740 2.58127 354 ft 11 kts 180°
2026-05-07 20:56 49.00664 2.58129 354 ft 9 kts 207°
2026-05-07 20:57 49.00653 2.58069 354 ft 4 kts 272°
2026-05-07 20:57 49.00653 2.58039 356 ft 2 kts 268°
2026-05-07 20:57 49.00653 2.58030 354 ft 0 kts 268°
2026-05-07 20:57 49.00652 2.58023 354 ft 0 kts 268°
2026-05-07 20:58 49.00652 2.58022 354 ft 0 kts 268°
2026-05-07 20:58 49.00652 2.58020 354 ft 1 kts 268°
2026-05-07 20:58 49.00652 2.58002 354 ft 0 kts 267°